Theta_e
323 324 322 321 319 318 321 345 348 348 345 341 346 348 346 343 346 346 348 348 348 345 346 349 350 347 347 344 352 351 351 348
325 324 323 322 322 321 320 339 350 350 349 346 345 350 348 341 342 344 348 348 347 347 347 348 348 348 347 341 340 350 352 350
331 324 322 321 323 327 326 330 340 351 350 342 345 346 347 344 346 344 345 345 347 346 349 348 346 350 347 345 340 352 351 353
331 331 325 324 323 326 330 331 332 338 346 342 340 339 343 341 342 342 343 344 344 345 349 350 348 353 354 353 353 353 352 351
327 331 330 325 324 326 327 325 333 337 344 339 340 345 344 348 346 344 345 344 346 350 350 352 354 354 353 353 351 351 354 354
327 333 336 338 336 335 336 330 336 343 345 344 346 348 346 346 346 345 347 350 350 349 348 350 351 352 352 354 353 355 354 354
329 336 337 335 333 333 334 336 334 339 344 344 342 346 344 344 346 347 349 351 349 349 348 348 348 351 354 353 353 353 354 352
332 331 334 335 335 335 337 337 335 338 337 341 341 339 343 343 347 347 350 350 348 348 346 346 349 351 351 352 351 351 350 351
333 331 331 339 337 337 337 337 337 337 339 340 342 342 344 345 346 346 347 348 347 347 345 347 347 349 350 351 352 350 349 349
340 339 340 333 334 336 336 337 335 335 338 339 341 341 343 343 344 346 348 347 345 343 342 344 343 342 346 348 348 347 346 346
339 340 338 335 336 336 339 338 335 340 341 340 338 338 341 341 341 344 346 344 344 344 343 344 343 340 338 338 338 339 341 343
336 339 341 336 336 336 334 339 335 335 338 341 339 341 339 339 341 346 346 344 344 344 343 342 342 343 341 338 334 337 338 338
332 336 335 337 335 335 338 336 336 334 338 338 341 341 338 345 345 345 345 345 344 342 343 342 341 341 341 341 341 342 341 341
332 332 334 334 335 334 334 334 334 333 346 347 345 346 350 349 350 348 346 346 346 346 345 345 344 344 345 344 344 345 345 345
340 340 333 334 333 335 332 333 333 338 348 346 346 351 350 348 347 345 344 345 345 345 344 343 341 342 344 344 344 343 341 339
336 338 334 333 337 334 333 333 332 346 346 345 347 350 349 346 344 344 344 345 345 344 341 339 337 340 342 341 340 339 337 335
334 336 332 338 330 331 331 334 335 335 345 345 345 346 346 343 338 336 337 338 338 338 339 338 337 337 338 336 337 337 337 336
332 334 332 330 329 330 331 334 335 331 345 343 343 343 341 339 338 338 338 337 336 335 337 336 336 336 333 334 335 335 337 338
331 331 329 329 329 331 334 334 335 341 342 342 341 340 339 340 340 339 338 336 336 335 336 335 334 333 332 334 334 334 337 337
Wind_Speed
11 6 8 9 6 11 3 3 4 3 5 3 15 16 14 13 13 12 12 12 23 23 29 30 35 36 29 28 31 32 37 36
11 8 8 7 7 2 2 3 4 3 2 4 2 15 16 17 18 16 17 19 17 13 28 35 36 36 35 40 42 36 37 36
2 5 8 5 5 4 3 4 5 4 5 6 16 16 20 21 14 11 8 5 6 6 19 26 33 36 42 40 42 39 36 35
11 7 11 9 7 7 4 8 3 5 5 11 16 22 16 10 12 8 9 7 5 6 11 15 30 30 37 39 36 38 35 33
7 3 5 5 9 4 4 1 3 4 2 11 10 8 12 14 11 9 8 8 7 7 10 13 14 5 23 34 39 34 37 36
6 6 3 1 5 6 4 3 2 3 5 5 11 15 12 10 9 9 8 8 7 7 7 10 9 7 7 7 24 31 38 34
7 6 4 4 8 13 7 15 1 9 12 11 11 16 13 13 11 10 9 8 8 7 5 8 12 11 8 10 3 26 30 29
6 7 8 6 1 8 11 12 16 10 6 12 10 10 12 13 12 10 9 10 8 8 6 5 8 13 10 3 3 3 7 16
6 7 4 1 11 11 7 6 2 9 6 9 9 14 16 14 12 11 10 10 10 8 7 7 4 9 13 9 2 5 1 7
3 5 9 5 9 12 10 10 10 19 9 17 14 11 13 14 11 11 13 14 11 11 13 9 7 8 9 10 8 6 11 12
2 4 4 3 5 3 5 7 15 17 13 13 12 9 9 13 9 10 14 12 16 21 21 15 10 10 11 12 11 10 11 12
2 3 5 6 6 12 7 3 11 14 12 14 13 7 5 13 13 15 18 23 21 23 20 18 11 8 8 9 10 10 10 10
10 7 7 3 10 6 9 7 3 8 8 9 5 5 7 17 16 20 22 23 25 21 19 16 14 11 7 3 1 2 3 4
7 9 9 7 5 8 7 5 7 9 9 14 12 13 18 17 16 15 12 20 21 18 14 11 7 5 3 3 7 7 5 7
5 3 10 14 7 1 13 8 7 13 5 14 14 16 15 15 14 14 15 17 17 16 13 10 9 8 9 8 8 12 9 6
7 3 17 18 16 14 6 7 2 19 17 16 14 15 14 12 10 9 15 15 18 20 18 15 10 8 10 7 5 7 7 6
5 7 11 1 16 18 18 15 3 1 20 18 16 13 15 12 9 9 15 20 20 19 18 18 12 9 5 3 4 6 8 8
5 5 6 12 16 21 14 12 15 14 16 17 17 15 14 12 14 17 19 22 20 17 20 15 11 9 5 4 6 5 7 7
6 3 7 8 12 13 11 14 16 20 19 18 15 15 15 14 17 25 25 22 19 18 20 16 11 10 9 7 6 7 6 5
Wind_Direction
182 185 189 262 200 216 187 23 89 260 269 15 143 178 178 209 222 241 201 204 210 195 192 186 186 198 181 188 209 213 208 209
192 173 225 191 230 288 285 145 198 223 318 241 135 183 192 204 209 230 204 211 203 195 182 184 186 190 189 190 203 218 205 207
353 193 192 269 280 276 167 171 152 169 244 224 125 262 197 198 174 135 134 133 132 200 212 181 180 184 186 197 201 207 210 208
230 255 193 204 233 208 149 286 246 153 266 200 173 215 169 155 143 140 135 131 99 92 69 157 171 177 181 190 193 198 204 213
315 294 301 209 244 245 231 180 244 108 238 197 175 90 103 109 106 105 107 104 69 58 59 57 57 105 180 185 192 198 201 208
201 211 169 333 339 339 21 315 170 121 130 13 108 111 109 112 115 120 118 106 97 76 53 26 13 356 310 234 211 192 204 206
288 137 166 229 275 277 343 304 255 213 166 184 166 147 145 139 144 136 135 116 109 100 76 25 343 340 318 292 324 216 220 210
281 285 210 195 285 310 308 313 350 190 206 178 181 136 141 151 143 150 141 138 129 106 91 69 358 347 343 330 267 211 187 211
250 268 282 357 189 204 229 298 190 291 190 133 148 154 157 153 150 154 145 143 124 119 110 96 43 33 35 26 19 263 263 123
206 322 269 235 174 169 207 283 323 299 206 161 166 161 149 152 151 152 139 136 131 127 119 111 87 70 73 66 75 78 78 99
196 238 277 3 179 122 132 255 269 186 170 149 142 107 152 152 147 145 150 145 141 145 136 128 111 91 82 80 79 74 80 109
279 181 242 191 162 137 137 217 295 327 167 147 133 134 206 155 148 134 137 138 136 141 133 126 129 126 102 94 87 83 81 81
257 244 245 174 140 148 151 224 309 312 162 134 102 173 146 109 115 120 127 130 141 150 156 155 160 155 157 158 142 83 61 53
230 247 261 163 142 158 186 179 78 359 86 106 113 97 111 116 117 118 122 131 135 132 119 129 141 167 166 141 104 105 100 93
27 331 330 333 215 153 152 169 144 135 197 120 122 120 119 123 126 129 135 134 142 141 138 135 115 76 117 104 103 106 96 73
347 307 331 337 2 15 346 145 144 144 143 139 131 133 130 133 134 133 148 149 153 151 138 124 114 90 119 114 93 100 99 93
249 264 314 192 352 348 336 327 60 314 148 144 136 129 133 130 127 122 117 132 142 141 129 127 125 115 101 119 136 120 128 125
244 189 178 274 315 323 327 329 312 231 154 143 135 136 132 131 131 124 118 115 117 117 133 130 132 138 112 162 158 173 154 144
237 188 222 238 253 286 335 328 312 181 146 144 139 138 137 136 138 136 135 138 145 147 145 143 160 159 154 159 146 166 142 134